Погода в Поливаново

Россия / Ульяновская область     53˚36′48″N   47˚22′08″E
темп.,
°C
ветер,
м/с
пор.,
м/с
влажн.,
%
обл.,
%
осадки,
мм/ч
давл.,
гПа
погр.,
м
16 января, сб
сб1601:00−9˚св4895100 2.4 1000360
04:00−9˚всв2596100 5.9 998282
07:00−10˚ююз1197100 1.1 99521
10:00−10˚юз5109299 1.4 997477
13:00−10˚зюз7129097 0.2 999839
16:00−11˚зюз7139099 0.6 1000932
19:00−12˚зюз51292100 0.2 1001807
22:00−13˚зюз51292100 0.3 1003704
17 января, вс
вс1701:00−14˚зюз51192100 0.1 1005605
04:00−16˚зюз5129198 0.1 1007505
07:00−18˚з4119379 0.0 1008348
10:00−19˚з4109481 0.0 1011349
13:00−16˚з489078 0.0 1012503
16:00−17˚з369388 0.0 1013285
19:00−21˚з229754 0.0 101620
22:00−23˚зсз129727 0.0 101720
18 января, пн
пн1801:00−24˚зсз11980 0.0 101820
04:00−25˚ссз11983 0.0 101820
07:00−25˚с119849 0.0 101820
10:00−23˚ссв119674 0.0 101922
13:00−18˚юв0190100 0.0 1019231
16:00−18˚св2291100 0.0 1018267
19:00−19˚св2495100 0.0 1018188
22:00−19˚ссв2494100 0.0 1018200
19 января, вт
вт1901:00−20˚ссв2498100 0.8 1017206
04:00−20˚ссв2598100 1.5 1016200
07:00−20˚с2598100 0.4 1016219
10:00−20˚ссв3597100 0.8 1016240
13:00−18˚с3495100 0.3 1015292
16:00−17˚с3596100 0.8 1014339
19:00−18˚ссз3697100 0.6 1015313
22:00−18˚с3697100 1.0 1016295
20 января, ср
ср2001:00−18˚ссз3696100 0.4 1016303
04:00−18˚ссз3796100 0.7 1017316
07:00−19˚ссз4794100 0.0 1018311
10:00−21˚с4894100 0.0 1020303
13:00−20˚с469597 0.0 1022300
16:00−20˚с369591 0.0 1023255
19:00−25˚с349847 0.0 102659
22:00−25˚ссз339824 0.0 102842